TimeCDT,TemperatureF,Dew PointF,Humidity,Sea Level PressureIn,VisibilityMPH,Wind Direction,Wind SpeedMPH,Gust SpeedMPH,PrecipitationIn,Events,Conditions,WindDirDegrees,DateUTC
12:15 AM,63.5,59.9,88,29.62,10.0,Calm,Calm,-,N/A,,Mostly Cloudy,0,2013-04-08 05:15:00
12:35 AM,63.3,59.9,89,29.62,10.0,ENE,4.6,-,N/A,,Overcast,70,2013-04-08 05:35:00
12:55 AM,63.5,60.3,89,29.62,10.0,ESE,5.8,-,N/A,,Overcast,120,2013-04-08 05:55:00
1:15 AM,63.5,60.4,90,29.61,10.0,SE,8.1,-,N/A,,Overcast,140,2013-04-08 06:15:00
1:35 AM,63.5,60.8,91,29.61,10.0,ESE,3.5,-,N/A,,Overcast,120,2013-04-08 06:35:00
1:55 AM,63.5,60.4,90,29.60,10.0,SSE,10.4,-,N/A,,Overcast,150,2013-04-08 06:55:00
2:15 AM,63.1,60.8,92,29.60,7.0,SSE,8.1,-,N/A,,Overcast,150,2013-04-08 07:15:00
2:35 AM,63.0,60.6,92,29.59,7.0,SE,5.8,-,N/A,,Overcast,130,2013-04-08 07:35:00
2:55 AM,62.6,60.4,93,29.58,7.0,SSE,8.1,-,N/A,,Overcast,160,2013-04-08 07:55:00
3:15 AM,62.4,60.3,93,29.58,7.0,SSE,8.1,-,N/A,,Overcast,150,2013-04-08 08:15:00
3:35 AM,62.2,60.3,93,29.57,7.0,South,4.6,-,N/A,,Overcast,170,2013-04-08 08:35:00
3:55 AM,61.9,59.9,93,29.56,7.0,South,9.2,-,N/A,,Overcast,190,2013-04-08 08:55:00
4:15 AM,61.5,59.5,93,29.56,7.0,South,4.6,-,N/A,,Overcast,190,2013-04-08 09:15:00
4:35 AM,61.0,59.0,93,29.55,7.0,South,8.1,-,N/A,,Mostly Cloudy,190,2013-04-08 09:35:00
4:55 AM,59.7,58.1,94,29.55,7.0,SSE,3.5,-,N/A,,Mostly Cloudy,150,2013-04-08 09:55:00
5:15 AM,59.0,57.6,95,29.55,5.0,Calm,Calm,-,N/A,,Mostly Cloudy,0,2013-04-08 10:15:00
5:35 AM,58.5,57.4,96,29.55,5.0,SE,3.5,-,N/A,,Mostly Cloudy,140,2013-04-08 10:35:00
5:55 AM,57.6,56.5,96,29.55,5.0,SSE,3.5,-,N/A,,Overcast,160,2013-04-08 10:55:00
6:15 AM,57.7,57.0,97,29.57,4.0,South,4.6,-,N/A,,Overcast,170,2013-04-08 11:15:00
6:35 AM,57.6,56.7,97,29.58,3.0,Calm,Calm,-,N/A,,Overcast,0,2013-04-08 11:35:00
6:55 AM,56.8,56.3,98,29.58,1.5,South,3.5,-,N/A,,Overcast,190,2013-04-08 11:55:00
7:15 AM,56.3,55.6,97,29.59,1.0,Calm,Calm,-,N/A,,Overcast,0,2013-04-08 12:15:00
7:35 AM,55.6,55.0,98,29.60,0.5,Calm,Calm,-,N/A,Fog,Fog,0,2013-04-08 12:35:00
7:55 AM,54.9,54.5,99,29.61,0.2,WSW,3.5,-,N/A,Fog,Fog,240,2013-04-08 12:55:00
8:15 AM,54.9,54.5,99,29.61,0.2,Calm,Calm,-,N/A,Fog,Fog,0,2013-04-08 13:15:00
8:35 AM,55.4,55.0,99,29.60,0.2,Calm,Calm,-,N/A,Fog,Fog,0,2013-04-08 13:35:00
8:55 AM,56.3,55.9,99,29.61,2.5,Calm,Calm,-,N/A,,Overcast,0,2013-04-08 13:55:00
9:15 AM,56.5,56.3,99,29.61,3.0,Calm,Calm,-,N/A,,Overcast,0,2013-04-08 14:15:00
9:35 AM,56.5,55.9,98,29.62,5.0,SSW,3.5,-,N/A,,Overcast,200,2013-04-08 14:35:00
9:55 AM,58.1,54.7,88,29.62,10.0,Calm,Calm,-,N/A,,Overcast,0,2013-04-08 14:55:00
10:15 AM,59.4,55.4,87,29.63,10.0,Calm,Calm,-,N/A,,Overcast,0,2013-04-08 15:15:00
10:35 AM,60.8,55.8,83,29.63,10.0,Calm,Calm,-,N/A,,Overcast,0,2013-04-08 15:35:00
10:55 AM,60.8,55.4,82,29.63,10.0,Calm,Calm,-,N/A,,Scattered Clouds,0,2013-04-08 15:55:00
11:15 AM,61.7,55.6,80,29.62,10.0,Calm,Calm,-,N/A,,Clear,0,2013-04-08 16:15:00
11:35 AM,62.4,55.2,77,29.62,10.0,Calm,Calm,-,N/A,,Clear,0,2013-04-08 16:35:00
11:55 AM,63.5,55.0,74,29.61,10.0,Calm,Calm,-,N/A,,Clear,0,2013-04-08 16:55:00
12:15 PM,65.3,55.0,69,29.61,10.0,Calm,Calm,-,N/A,,Clear,0,2013-04-08 17:15:00
12:35 PM,66.6,55.4,67,29.60,10.0,Calm,Calm,-,N/A,,Clear,0,2013-04-08 17:35:00
12:55 PM,67.8,55.4,64,29.59,10.0,Calm,Calm,-,N/A,,Clear,0,2013-04-08 17:55:00
1:15 PM,70.5,55.2,58,29.58,10.0,Calm,Calm,-,N/A,,Clear,0,2013-04-08 18:15:00
1:35 PM,72.0,54.9,55,29.57,10.0,Calm,Calm,-,N/A,,Clear,0,2013-04-08 18:35:00
1:55 PM,75.4,52.0,44,29.55,10.0,SE,5.8,-,N/A,,Clear,140,2013-04-08 18:55:00
2:15 PM,77.0,49.3,38,29.54,10.0,SE,9.2,-,N/A,,Clear,130,2013-04-08 19:15:00
2:35 PM,80.8,44.8,28,29.53,10.0,SE,10.4,-,N/A,,Clear,140,2013-04-08 19:35:00
2:55 PM,83.5,38.5,20,29.52,10.0,SSE,15.0,-,N/A,,Clear,160,2013-04-08 19:55:00
3:15 PM,82.9,43.2,25,29.51,10.0,SSE,16.1,21.9,N/A,,Clear,160,2013-04-08 20:15:00
3:35 PM,83.5,41.2,22,29.50,10.0,SSE,16.1,23.0,N/A,,Clear,160,2013-04-08 20:35:00
3:55 PM,85.8,34.9,16,29.48,10.0,South,12.7,21.9,N/A,,Clear,190,2013-04-08 20:55:00
4:15 PM,87.8,33.4,14,29.47,10.0,SSW,18.4,26.5,N/A,,Clear,210,2013-04-08 21:15:00
4:35 PM,88.7,31.1,13,29.45,10.0,South,27.6,40.3,N/A,,Clear,190,2013-04-08 21:35:00
4:55 PM,89.4,26.2,10,29.44,10.0,SSW,19.6,32.2,N/A,,Clear,200,2013-04-08 21:55:00
5:15 PM,90.5,23.9,9,29.44,10.0,SSW,26.5,31.1,N/A,,Clear,210,2013-04-08 22:15:00
5:35 PM,89.2,23.4,9,29.43,10.0,SSW,24.2,31.1,N/A,,Clear,210,2013-04-08 22:35:00
5:55 PM,89.4,22.8,9,29.43,10.0,South,20.7,26.5,N/A,,Clear,190,2013-04-08 22:55:00
6:15 PM,89.1,21.9,9,29.42,10.0,SSW,18.4,29.9,N/A,,Clear,200,2013-04-08 23:15:00
6:35 PM,89.1,20.8,8,29.41,10.0,South,21.9,27.6,N/A,,Clear,190,2013-04-08 23:35:00
6:55 PM,89.1,21.9,9,29.41,10.0,South,24.2,33.4,N/A,,Clear,190,2013-04-08 23:55:00
7:15 PM,87.1,48.0,26,29.41,10.0,SSE,17.3,-,N/A,,Clear,160,2013-04-09 00:15:00
7:35 PM,82.0,55.9,41,29.42,10.0,SSE,24.2,34.5,N/A,,Clear,150,2013-04-09 00:35:00
7:55 PM,78.4,60.8,55,29.43,10.0,SSE,27.6,35.7,N/A,,Clear,160,2013-04-09 00:55:00
8:15 PM,76.1,61.0,59,29.44,10.0,SSE,28.8,34.5,N/A,,Clear,160,2013-04-09 01:15:00
8:35 PM,75.2,61.2,62,29.45,10.0,SSE,24.2,34.5,N/A,,Clear,160,2013-04-09 01:35:00
8:55 PM,73.0,60.8,65,29.46,10.0,SSE,27.6,38.0,N/A,,Clear,160,2013-04-09 01:55:00
9:15 PM,72.0,60.8,68,29.47,10.0,SSE,25.3,36.8,N/A,,Clear,160,2013-04-09 02:15:00
9:35 PM,70.7,61.2,72,29.48,10.0,SSE,25.3,32.2,N/A,,Clear,160,2013-04-09 02:35:00
9:55 PM,70.0,61.0,73,29.48,10.0,SSE,26.5,35.7,N/A,,Clear,160,2013-04-09 02:55:00
10:15 PM,68.9,60.8,75,29.48,10.0,SSE,25.3,33.4,N/A,,Clear,160,2013-04-09 03:15:00
10:35 PM,68.9,61.0,76,29.48,10.0,SSE,23.0,36.8,N/A,,Clear,160,2013-04-09 03:35:00
10:55 PM,67.5,60.8,79,29.48,10.0,SSE,26.5,35.7,N/A,,Clear,160,2013-04-09 03:55:00
11:15 PM,67.6,60.8,79,29.48,10.0,SSE,26.5,39.1,N/A,,Clear,160,2013-04-09 04:15:00
11:35 PM,67.5,61.0,80,29.48,10.0,SSE,28.8,36.8,N/A,,Clear,160,2013-04-09 04:35:00
11:55 PM,66.6,61.0,82,29.48,10.0,SSE,24.2,36.8,N/A,,Clear,160,2013-04-09 04:55:00